Terug naar catalogus

DELTA 1 DEB

ActiefPO
NORAD 8542·DEBRIS·🇺🇸 United States

Gelanceerd Jul 23, 1972 vanaf Vandenberg Space Force Base

Loading…

Volgende Passages (komende 24 uur)

TLE

VersSource: Space-Track

Epoch: Sep 14, 2026, 02:37 UTC

1 08542U 72058GR  26257.10964833  .00000173  00000-0  11206-3 0  9991
2 08542  97.9419 123.6223 0349572 252.1816 104.0925 13.86681602718631

Volg DELTA 1 DEB in realtime met AllMySat

Download on the App Store